Year,Month,Day,Hour,Minute,Value (Times are PST for temperature in C)
2013,12,16,00,00,4.60
2013,12,16,00,01,4.60
2013,12,16,00,02,4.60
2013,12,16,00,03,4.60
2013,12,16,00,04,4.60
2013,12,16,00,05,4.60
2013,12,16,00,06,4.60
2013,12,16,00,07,4.50
2013,12,16,00,08,4.50
2013,12,16,00,09,4.50
2013,12,16,00,10,4.50
2013,12,16,00,11,4.50
2013,12,16,00,12,4.50
2013,12,16,00,13,4.40
2013,12,16,00,14,4.40
2013,12,16,00,15,4.40
2013,12,16,00,16,4.40
2013,12,16,00,17,4.40
2013,12,16,00,18,4.30
2013,12,16,00,19,4.30
2013,12,16,00,20,4.30
2013,12,16,00,21,4.30
2013,12,16,00,22,4.40
2013,12,16,00,23,4.40
2013,12,16,00,24,4.40
2013,12,16,00,25,4.40
2013,12,16,00,26,4.40
2013,12,16,00,27,4.30
2013,12,16,00,28,4.30
2013,12,16,00,29,4.30
2013,12,16,00,30,4.30
2013,12,16,00,31,4.30
2013,12,16,00,32,4.30
2013,12,16,00,33,4.30
2013,12,16,00,34,4.30
2013,12,16,00,35,4.30
2013,12,16,00,36,4.30
2013,12,16,00,37,4.30
2013,12,16,00,38,4.30
2013,12,16,00,39,4.30
2013,12,16,00,40,4.30
2013,12,16,00,41,4.30
2013,12,16,00,42,4.30
2013,12,16,00,43,4.30
2013,12,16,00,44,4.30
2013,12,16,00,45,4.30
2013,12,16,00,46,4.30
2013,12,16,00,47,4.30
2013,12,16,00,48,4.30
2013,12,16,00,49,4.20
2013,12,16,00,50,4.20
2013,12,16,00,51,4.20
2013,12,16,00,52,4.20
2013,12,16,00,53,4.20
2013,12,16,00,54,4.20
2013,12,16,00,55,4.30
2013,12,16,00,56,4.30
2013,12,16,00,57,4.30
2013,12,16,00,58,4.30
2013,12,16,00,59,4.30
2013,12,16,01,00,4.30
2013,12,16,01,01,4.40
2013,12,16,01,02,4.40
2013,12,16,01,03,4.40
2013,12,16,01,04,4.50
2013,12,16,01,05,4.50
2013,12,16,01,06,4.60
2013,12,16,01,07,4.60
2013,12,16,01,08,4.60
2013,12,16,01,09,4.70
2013,12,16,01,10,4.70
2013,12,16,01,11,4.70
2013,12,16,01,12,4.70
2013,12,16,01,13,4.70
2013,12,16,01,14,4.80
2013,12,16,01,15,4.80
2013,12,16,01,16,4.90
2013,12,16,01,17,4.90
2013,12,16,01,18,4.90
2013,12,16,01,19,5.00
2013,12,16,01,20,5.10
2013,12,16,01,21,5.10
2013,12,16,01,22,5.20
2013,12,16,01,23,5.20
2013,12,16,01,24,5.20
2013,12,16,01,25,5.30
2013,12,16,01,26,5.30
2013,12,16,01,27,5.30
2013,12,16,01,28,5.30
2013,12,16,01,29,5.30
2013,12,16,01,30,5.40
2013,12,16,01,31,5.50
2013,12,16,01,32,5.50
2013,12,16,01,33,5.60
2013,12,16,01,34,5.60
2013,12,16,01,35,5.60
2013,12,16,01,36,5.60
2013,12,16,01,37,5.70
2013,12,16,01,38,5.70
2013,12,16,01,39,5.70
2013,12,16,01,40,5.70
2013,12,16,01,41,5.70
2013,12,16,01,42,5.70
2013,12,16,01,43,5.70
2013,12,16,01,44,5.70
2013,12,16,01,45,5.70
2013,12,16,01,46,5.70
2013,12,16,01,47,5.60
2013,12,16,01,48,5.60
2013,12,16,01,49,5.50
2013,12,16,01,50,5.50
2013,12,16,01,51,5.40
2013,12,16,01,52,5.40
2013,12,16,01,53,5.40
2013,12,16,01,54,5.40
2013,12,16,01,55,5.40
2013,12,16,01,56,5.30
2013,12,16,01,57,5.30
2013,12,16,01,58,5.30
2013,12,16,01,59,5.30
2013,12,16,02,00,5.30
2013,12,16,02,01,5.20
2013,12,16,02,02,5.20
2013,12,16,02,03,5.20
2013,12,16,02,04,5.10
2013,12,16,02,05,5.10
2013,12,16,02,06,5.00
2013,12,16,02,07,5.00
2013,12,16,02,08,5.00
2013,12,16,02,09,4.90
2013,12,16,02,10,4.90
2013,12,16,02,11,4.90
2013,12,16,02,12,4.80
2013,12,16,02,13,4.80
2013,12,16,02,14,4.80
2013,12,16,02,15,4.70
2013,12,16,02,16,4.70
2013,12,16,02,17,4.70
2013,12,16,02,18,4.60
2013,12,16,02,19,4.60
2013,12,16,02,20,4.60
2013,12,16,02,21,4.60
2013,12,16,02,22,4.60
2013,12,16,02,23,4.60
2013,12,16,02,24,4.50
2013,12,16,02,25,4.60
2013,12,16,02,26,4.50
2013,12,16,02,27,4.50
2013,12,16,02,28,4.50
2013,12,16,02,29,4.50
2013,12,16,02,30,4.50
2013,12,16,02,31,4.50
2013,12,16,02,32,4.50
2013,12,16,02,33,4.50
2013,12,16,02,34,4.50
2013,12,16,02,35,4.50
2013,12,16,02,36,4.40
2013,12,16,02,37,4.40
2013,12,16,02,38,4.40
2013,12,16,02,39,4.40
2013,12,16,02,40,4.40
2013,12,16,02,41,4.30
2013,12,16,02,42,4.30
2013,12,16,02,43,4.30
2013,12,16,02,44,4.30
2013,12,16,02,45,4.20
2013,12,16,02,46,4.20
2013,12,16,02,47,4.20
2013,12,16,02,48,4.20
2013,12,16,02,49,4.10
2013,12,16,02,50,4.10
2013,12,16,02,51,4.10
2013,12,16,02,52,4.10
2013,12,16,02,53,4.10
2013,12,16,02,54,4.10
2013,12,16,02,55,4.10
2013,12,16,02,56,4.10
2013,12,16,02,57,4.10
2013,12,16,02,58,4.10
2013,12,16,02,59,4.10
2013,12,16,03,00,4.10
2013,12,16,03,01,4.10
2013,12,16,03,02,4.10
2013,12,16,03,03,4.10
2013,12,16,03,04,4.10
2013,12,16,03,05,4.10
2013,12,16,03,06,4.10
2013,12,16,03,07,4.10
2013,12,16,03,08,4.10
2013,12,16,03,09,4.10
2013,12,16,03,10,4.10
2013,12,16,03,11,4.10
2013,12,16,03,12,4.00
2013,12,16,03,13,4.00
2013,12,16,03,14,4.00
2013,12,16,03,15,3.90
2013,12,16,03,16,3.90
2013,12,16,03,17,3.90
2013,12,16,03,18,3.90
2013,12,16,03,19,3.90
2013,12,16,03,20,3.80
2013,12,16,03,21,3.80
2013,12,16,03,22,3.80
2013,12,16,03,23,3.80
2013,12,16,03,24,3.80
2013,12,16,03,25,3.80
2013,12,16,03,26,3.80
2013,12,16,03,27,3.80
2013,12,16,03,28,3.80
2013,12,16,03,29,3.80
2013,12,16,03,30,3.80
2013,12,16,03,31,3.80
2013,12,16,03,32,3.80
2013,12,16,03,33,3.80
2013,12,16,03,34,3.80
2013,12,16,03,35,3.80
2013,12,16,03,36,3.80
2013,12,16,03,37,3.70
2013,12,16,03,38,3.70
2013,12,16,03,39,3.70
2013,12,16,03,40,3.60
2013,12,16,03,41,3.60
2013,12,16,03,42,3.60
2013,12,16,03,43,3.60
2013,12,16,03,44,3.60
2013,12,16,03,45,3.50
2013,12,16,03,46,3.50
2013,12,16,03,47,3.50
2013,12,16,03,48,3.50
2013,12,16,03,49,3.40
2013,12,16,03,50,3.40
2013,12,16,03,51,3.40
2013,12,16,03,52,3.30
2013,12,16,03,53,3.30
2013,12,16,03,54,3.30
2013,12,16,03,55,3.30
2013,12,16,03,56,3.30
2013,12,16,03,57,3.30
2013,12,16,03,58,3.30
2013,12,16,03,59,3.30
2013,12,16,04,00,3.30
2013,12,16,04,01,3.30
2013,12,16,04,02,3.30
2013,12,16,04,03,3.30
2013,12,16,04,04,3.20
2013,12,16,04,05,3.20
2013,12,16,04,06,3.20
2013,12,16,04,07,3.20
2013,12,16,04,08,3.20
2013,12,16,04,09,3.20
2013,12,16,04,10,3.10
2013,12,16,04,11,3.10
2013,12,16,04,12,3.10
2013,12,16,04,13,3.00
2013,12,16,04,14,3.00
2013,12,16,04,15,3.00
2013,12,16,04,16,3.00
2013,12,16,04,17,3.00
2013,12,16,04,18,2.90
2013,12,16,04,19,2.90
2013,12,16,04,20,2.90
2013,12,16,04,21,2.90
2013,12,16,04,22,2.90
2013,12,16,04,23,2.90
2013,12,16,04,24,2.90
2013,12,16,04,25,2.80
2013,12,16,04,26,2.80
2013,12,16,04,27,2.80
2013,12,16,04,28,2.80
2013,12,16,04,29,2.80
2013,12,16,04,30,2.80
2013,12,16,04,31,2.80
2013,12,16,04,32,2.80
2013,12,16,04,33,2.80
2013,12,16,04,34,2.80
2013,12,16,04,35,2.80
2013,12,16,04,36,2.80
2013,12,16,04,37,2.90
2013,12,16,04,38,2.90
2013,12,16,04,39,2.90
2013,12,16,04,40,3.00
2013,12,16,04,41,3.10
2013,12,16,04,42,3.20
2013,12,16,04,43,3.20
2013,12,16,04,44,3.20
2013,12,16,04,45,3.20
2013,12,16,04,46,3.20
2013,12,16,04,47,3.20
2013,12,16,04,48,3.20
2013,12,16,04,49,3.20
2013,12,16,04,50,3.30
2013,12,16,04,51,3.30
2013,12,16,04,52,3.40
2013,12,16,04,53,3.40
2013,12,16,04,54,3.40
2013,12,16,04,55,3.40
2013,12,16,04,56,3.40
2013,12,16,04,57,3.40
2013,12,16,04,58,3.40
2013,12,16,04,59,3.40
2013,12,16,05,00,3.40
2013,12,16,05,01,3.40
2013,12,16,05,02,3.30
2013,12,16,05,03,3.30
2013,12,16,05,04,3.30
2013,12,16,05,05,3.20
2013,12,16,05,06,3.20
2013,12,16,05,07,3.20
2013,12,16,05,08,3.10
2013,12,16,05,09,3.10
2013,12,16,05,10,3.10
2013,12,16,05,11,3.10
2013,12,16,05,12,3.10
2013,12,16,05,13,3.00
2013,12,16,05,14,3.00
2013,12,16,05,15,3.00
2013,12,16,05,16,2.90
2013,12,16,05,17,2.90
2013,12,16,05,18,2.90
2013,12,16,05,19,2.90
2013,12,16,05,20,2.90
2013,12,16,05,21,2.80
2013,12,16,05,22,2.80
2013,12,16,05,23,2.80
2013,12,16,05,24,2.80
2013,12,16,05,25,2.80
2013,12,16,05,26,2.80
2013,12,16,05,27,2.80
2013,12,16,05,28,2.80
2013,12,16,05,29,2.70
2013,12,16,05,30,2.70
2013,12,16,05,31,2.70
2013,12,16,05,32,2.70
2013,12,16,05,33,2.70
2013,12,16,05,34,2.70
2013,12,16,05,35,2.60
2013,12,16,05,36,2.60
2013,12,16,05,37,2.60
2013,12,16,05,38,2.60
2013,12,16,05,39,2.60
2013,12,16,05,40,2.60
2013,12,16,05,41,2.60
2013,12,16,05,42,2.60
2013,12,16,05,43,2.60
2013,12,16,05,44,2.60
2013,12,16,05,45,2.50
2013,12,16,05,46,2.50
2013,12,16,05,47,2.50
2013,12,16,05,48,2.40
2013,12,16,05,49,2.40
2013,12,16,05,50,2.40
2013,12,16,05,51,2.40
2013,12,16,05,52,2.30
2013,12,16,05,53,2.30
2013,12,16,05,54,2.30
2013,12,16,05,55,2.30
2013,12,16,05,56,2.20
2013,12,16,05,57,2.20
2013,12,16,05,58,2.20
2013,12,16,05,59,2.20
2013,12,16,06,00,2.20
2013,12,16,06,01,2.20
2013,12,16,06,02,2.20
2013,12,16,06,03,2.20
2013,12,16,06,04,2.20
2013,12,16,06,05,2.10
2013,12,16,06,06,2.10
2013,12,16,06,07,2.10
2013,12,16,06,08,2.10
2013,12,16,06,09,2.00
2013,12,16,06,10,2.00
2013,12,16,06,11,2.00
2013,12,16,06,12,1.90
2013,12,16,06,13,1.90
2013,12,16,06,14,1.90
2013,12,16,06,15,1.90
2013,12,16,06,16,1.90
2013,12,16,06,17,1.90
2013,12,16,06,18,1.80
2013,12,16,06,19,1.80
2013,12,16,06,20,1.80
2013,12,16,06,21,1.80
2013,12,16,06,22,1.80
2013,12,16,06,23,1.80
2013,12,16,06,24,1.80
2013,12,16,06,25,1.70
2013,12,16,06,26,1.70
2013,12,16,06,27,1.70
2013,12,16,06,28,1.70
2013,12,16,06,29,1.70
2013,12,16,06,30,1.70
2013,12,16,06,31,1.70
2013,12,16,06,32,1.70
2013,12,16,06,33,1.70
2013,12,16,06,34,1.70
2013,12,16,06,35,1.70
2013,12,16,06,36,1.70
2013,12,16,06,37,1.70
2013,12,16,06,38,1.60
2013,12,16,06,39,1.60
2013,12,16,06,40,1.60
2013,12,16,06,41,1.60
2013,12,16,06,42,1.60
2013,12,16,06,43,1.60
2013,12,16,06,44,1.60
2013,12,16,06,45,1.50
2013,12,16,06,46,1.50
2013,12,16,06,47,1.50
2013,12,16,06,48,1.50
2013,12,16,06,49,1.50
2013,12,16,06,50,1.50
2013,12,16,06,51,1.60
2013,12,16,06,52,1.60
2013,12,16,06,53,1.60
2013,12,16,06,54,1.60
2013,12,16,06,55,1.70
2013,12,16,06,56,1.70
2013,12,16,06,57,1.70
2013,12,16,06,58,1.70
2013,12,16,06,59,1.70
2013,12,16,07,00,1.60
2013,12,16,07,01,1.60
2013,12,16,07,02,1.60
2013,12,16,07,03,1.60
2013,12,16,07,04,1.50
2013,12,16,07,05,1.50
2013,12,16,07,06,1.50
2013,12,16,07,07,1.50
2013,12,16,07,08,1.40
2013,12,16,07,09,1.40
2013,12,16,07,10,1.40
2013,12,16,07,11,1.40
2013,12,16,07,12,1.40
2013,12,16,07,13,1.40
2013,12,16,07,14,1.40
2013,12,16,07,15,1.40
2013,12,16,07,16,1.40
2013,12,16,07,17,1.40
2013,12,16,07,18,1.40
2013,12,16,07,19,1.40
2013,12,16,07,20,1.30
2013,12,16,07,21,1.30
2013,12,16,07,22,1.30
2013,12,16,07,23,1.30
2013,12,16,07,24,1.30
2013,12,16,07,25,1.20
2013,12,16,07,26,1.20
2013,12,16,07,27,1.20
2013,12,16,07,28,1.20
2013,12,16,07,29,1.20
2013,12,16,07,30,1.20
2013,12,16,07,31,1.20
2013,12,16,07,32,1.20
2013,12,16,07,33,1.20
2013,12,16,07,34,1.20
2013,12,16,07,35,1.20
2013,12,16,07,36,1.20
2013,12,16,07,37,1.20
2013,12,16,07,38,1.30
2013,12,16,07,39,1.30
2013,12,16,07,40,1.30
2013,12,16,07,41,1.30
2013,12,16,07,42,1.40
2013,12,16,07,43,1.40
2013,12,16,07,44,1.40
2013,12,16,07,45,1.40
2013,12,16,07,46,1.40
2013,12,16,07,47,1.40
2013,12,16,07,48,1.40
2013,12,16,07,49,1.30
2013,12,16,07,50,1.30
2013,12,16,07,51,1.30
2013,12,16,07,52,1.20
2013,12,16,07,53,1.20
2013,12,16,07,54,1.20
2013,12,16,07,55,1.20
2013,12,16,07,56,1.20
2013,12,16,07,57,1.20
2013,12,16,07,58,1.20
2013,12,16,07,59,1.20
2013,12,16,08,00,1.20
2013,12,16,08,01,1.20
2013,12,16,08,02,1.20
2013,12,16,08,03,1.20
2013,12,16,08,04,1.10
2013,12,16,08,05,1.10
2013,12,16,08,06,1.20
2013,12,16,08,07,1.20
2013,12,16,08,08,1.20
2013,12,16,08,09,1.20
2013,12,16,08,10,1.20
2013,12,16,08,11,1.20
2013,12,16,08,12,1.20
2013,12,16,08,13,1.20
2013,12,16,08,14,1.20
2013,12,16,08,15,1.20
2013,12,16,08,16,1.20
2013,12,16,08,17,1.20
2013,12,16,08,18,1.10
2013,12,16,08,19,1.10
2013,12,16,08,20,1.10
2013,12,16,08,21,1.10
2013,12,16,08,22,1.10
2013,12,16,08,23,1.10
2013,12,16,08,24,1.10
2013,12,16,08,25,1.10
2013,12,16,08,26,1.10
2013,12,16,08,27,1.10
2013,12,16,08,28,1.10
2013,12,16,08,29,1.10
2013,12,16,08,30,1.10
2013,12,16,08,31,1.00
2013,12,16,08,32,1.00
2013,12,16,08,33,1.00
2013,12,16,08,34,1.00
2013,12,16,08,35,1.00
2013,12,16,08,36,1.00
2013,12,16,08,37,1.00
2013,12,16,08,38,1.00
2013,12,16,08,39,1.00
2013,12,16,08,40,1.00
2013,12,16,08,41,1.10
2013,12,16,08,42,1.10
2013,12,16,08,43,1.10
2013,12,16,08,44,1.00
2013,12,16,08,45,1.10
2013,12,16,08,46,1.00
2013,12,16,08,47,1.00
2013,12,16,08,48,1.00
2013,12,16,08,49,1.00
2013,12,16,08,50,1.00
2013,12,16,08,51,1.00
2013,12,16,08,52,1.00
2013,12,16,08,53,1.10
2013,12,16,08,54,1.10
2013,12,16,08,55,1.10
2013,12,16,08,56,1.10
2013,12,16,08,57,1.10
2013,12,16,08,58,1.10
2013,12,16,08,59,1.10
2013,12,16,09,00,1.10
2013,12,16,09,01,1.10
2013,12,16,09,02,1.10
2013,12,16,09,03,1.20
2013,12,16,09,04,1.20
2013,12,16,09,05,1.20
2013,12,16,09,06,1.20
2013,12,16,09,07,1.20
2013,12,16,09,08,1.20
2013,12,16,09,09,1.20
2013,12,16,09,10,1.30
2013,12,16,09,11,1.30
2013,12,16,09,12,1.30
2013,12,16,09,13,1.30
2013,12,16,09,14,1.30
2013,12,16,09,15,1.30
2013,12,16,09,16,1.30
2013,12,16,09,17,1.40
2013,12,16,09,18,1.40
2013,12,16,09,19,1.40
2013,12,16,09,20,1.40
2013,12,16,09,21,1.40
2013,12,16,09,22,1.40
2013,12,16,09,23,1.40
2013,12,16,09,24,1.50
2013,12,16,09,25,1.50
2013,12,16,09,26,1.50
2013,12,16,09,27,1.60
2013,12,16,09,28,1.60
2013,12,16,09,29,1.60
2013,12,16,09,30,1.60
2013,12,16,09,31,1.70
2013,12,16,09,32,1.70
2013,12,16,09,33,1.80
2013,12,16,09,34,1.90
2013,12,16,09,35,1.90
2013,12,16,09,36,2.00
2013,12,16,09,37,2.10
2013,12,16,09,38,2.10
2013,12,16,09,39,2.20
2013,12,16,09,40,2.20
2013,12,16,09,41,2.30
2013,12,16,09,42,2.30
2013,12,16,09,43,2.40
2013,12,16,09,44,2.40
2013,12,16,09,45,2.40
2013,12,16,09,46,2.50
2013,12,16,09,47,2.50
2013,12,16,09,48,2.60
2013,12,16,09,49,2.60
2013,12,16,09,50,2.60
2013,12,16,09,51,2.70
2013,12,16,09,52,2.70
2013,12,16,09,53,2.70
2013,12,16,09,54,2.70
2013,12,16,09,55,2.80
2013,12,16,09,56,2.80
2013,12,16,09,57,2.90
2013,12,16,09,58,2.90
2013,12,16,09,59,3.00
2013,12,16,10,00,3.00
2013,12,16,10,01,3.10
2013,12,16,10,02,3.10
2013,12,16,10,03,3.20
2013,12,16,10,04,3.20
2013,12,16,10,05,3.20
2013,12,16,10,06,3.30
2013,12,16,10,07,3.30
2013,12,16,10,08,3.30
2013,12,16,10,09,3.40
2013,12,16,10,10,3.40
2013,12,16,10,11,3.40
2013,12,16,10,12,3.50
2013,12,16,10,13,3.50
2013,12,16,10,14,3.50
2013,12,16,10,15,3.60
2013,12,16,10,16,3.60
2013,12,16,10,17,3.70
2013,12,16,10,18,3.70
2013,12,16,10,19,3.80
2013,12,16,10,20,3.80
2013,12,16,10,21,3.80
2013,12,16,10,22,3.90
2013,12,16,10,23,3.90
2013,12,16,10,24,3.90
2013,12,16,10,25,3.90
2013,12,16,10,26,3.90
2013,12,16,10,27,3.90
2013,12,16,10,28,3.90
2013,12,16,10,29,4.00
2013,12,16,10,30,4.00
2013,12,16,10,31,4.00
2013,12,16,10,32,4.10
2013,12,16,10,33,4.10
2013,12,16,10,34,4.10
2013,12,16,10,35,4.20
2013,12,16,10,36,4.20
2013,12,16,10,37,4.20
2013,12,16,10,38,4.30
2013,12,16,10,39,4.30
2013,12,16,10,40,4.30
2013,12,16,10,41,4.40
2013,12,16,10,42,4.40
2013,12,16,10,43,4.50
2013,12,16,10,44,4.50
2013,12,16,10,45,4.60
2013,12,16,10,46,4.60
2013,12,16,10,47,4.70
2013,12,16,10,48,4.70
2013,12,16,10,49,4.80
2013,12,16,10,50,4.90
2013,12,16,10,51,5.00
2013,12,16,10,52,5.10
2013,12,16,10,53,5.10
2013,12,16,10,54,5.20
2013,12,16,10,55,5.20
2013,12,16,10,56,5.30
2013,12,16,10,57,5.30
2013,12,16,10,58,5.30
2013,12,16,10,59,5.30
2013,12,16,11,00,5.20
2013,12,16,11,01,5.20
2013,12,16,11,02,5.30
2013,12,16,11,03,5.30
2013,12,16,11,04,5.30
2013,12,16,11,05,5.30
2013,12,16,11,06,5.30
2013,12,16,11,07,5.30
2013,12,16,11,08,5.40
2013,12,16,11,09,5.40
2013,12,16,11,10,5.40
2013,12,16,11,11,5.40
2013,12,16,11,12,5.40
2013,12,16,11,13,5.40
2013,12,16,11,14,5.40
2013,12,16,11,15,5.40
2013,12,16,11,16,5.50
2013,12,16,11,17,5.50
2013,12,16,11,18,5.50
2013,12,16,11,19,5.60
2013,12,16,11,20,5.60
2013,12,16,11,21,5.60
2013,12,16,11,22,5.60
2013,12,16,11,23,5.70
2013,12,16,11,24,5.70
2013,12,16,11,25,5.80
2013,12,16,11,26,5.80
2013,12,16,11,27,5.80
2013,12,16,11,28,5.90
2013,12,16,11,29,5.90
2013,12,16,11,30,6.00
2013,12,16,11,31,6.00
2013,12,16,11,32,6.10
2013,12,16,11,33,6.10
2013,12,16,11,34,6.20
2013,12,16,11,35,6.30
2013,12,16,11,36,6.30
2013,12,16,11,37,6.40
2013,12,16,11,38,6.40
2013,12,16,11,39,6.50
2013,12,16,11,40,6.60
2013,12,16,11,41,6.70
2013,12,16,11,42,6.70
2013,12,16,11,43,6.80
2013,12,16,11,44,6.80
2013,12,16,11,45,6.80
2013,12,16,11,46,6.90
2013,12,16,11,47,6.90
2013,12,16,11,48,7.00
2013,12,16,11,49,7.00
2013,12,16,11,50,7.10
2013,12,16,11,51,7.10
2013,12,16,11,52,7.10
2013,12,16,11,53,7.20
2013,12,16,11,54,7.20
2013,12,16,11,55,7.30
2013,12,16,11,56,7.30
2013,12,16,11,57,7.30
2013,12,16,11,58,7.30
2013,12,16,11,59,7.40
2013,12,16,12,00,7.40
2013,12,16,12,01,7.50
2013,12,16,12,02,7.50
2013,12,16,12,03,7.60
2013,12,16,12,04,7.60
2013,12,16,12,05,7.60
2013,12,16,12,06,7.70
2013,12,16,12,07,7.80
2013,12,16,12,08,7.80
2013,12,16,12,09,7.90
2013,12,16,12,10,8.00
2013,12,16,12,11,8.00
2013,12,16,12,12,8.10
2013,12,16,12,13,8.10
2013,12,16,12,14,8.10
2013,12,16,12,15,8.10
2013,12,16,12,16,8.20
2013,12,16,12,17,8.20
2013,12,16,12,18,8.30
2013,12,16,12,19,8.30
2013,12,16,12,20,8.40
2013,12,16,12,21,8.40
2013,12,16,12,22,8.40
2013,12,16,12,23,8.40
2013,12,16,12,24,8.40
2013,12,16,12,25,8.40
2013,12,16,12,26,8.40
2013,12,16,12,27,8.40
2013,12,16,12,28,8.40
2013,12,16,12,29,8.40
2013,12,16,12,30,8.50
2013,12,16,12,31,8.50
2013,12,16,12,32,8.50
2013,12,16,12,33,8.50
2013,12,16,12,34,8.60
2013,12,16,12,35,8.60
2013,12,16,12,36,8.60
2013,12,16,12,37,8.60
2013,12,16,12,38,8.60
2013,12,16,12,39,8.60
2013,12,16,12,40,8.70
2013,12,16,12,41,8.70
2013,12,16,12,42,8.70
2013,12,16,12,43,8.70
2013,12,16,12,44,8.70
2013,12,16,12,45,8.70
2013,12,16,12,46,8.70
2013,12,16,12,47,8.70
2013,12,16,12,48,8.70
2013,12,16,12,49,8.70
2013,12,16,12,50,8.70
2013,12,16,12,51,8.70
2013,12,16,12,52,8.80
2013,12,16,12,53,8.80
2013,12,16,12,54,8.80
2013,12,16,12,55,8.90
2013,12,16,12,56,8.90
2013,12,16,12,57,8.90
2013,12,16,12,58,8.90
2013,12,16,12,59,8.90
2013,12,16,13,00,8.90
2013,12,16,13,01,8.90
2013,12,16,13,02,8.90
2013,12,16,13,03,8.80
2013,12,16,13,04,8.80
2013,12,16,13,05,8.80
2013,12,16,13,06,8.80
2013,12,16,13,07,8.80
2013,12,16,13,08,8.80
2013,12,16,13,09,8.80
2013,12,16,13,10,8.70
2013,12,16,13,11,8.70
2013,12,16,13,12,8.70
2013,12,16,13,13,8.70
2013,12,16,13,14,8.70
2013,12,16,13,15,8.70
2013,12,16,13,16,8.80
2013,12,16,13,17,8.80
2013,12,16,13,18,8.80
2013,12,16,13,19,8.80
2013,12,16,13,20,8.90
2013,12,16,13,21,8.90
2013,12,16,13,22,9.00
2013,12,16,13,23,9.10
2013,12,16,13,24,9.20
2013,12,16,13,25,9.30
2013,12,16,13,26,9.30
2013,12,16,13,27,9.40
2013,12,16,13,28,9.40
2013,12,16,13,29,9.50
2013,12,16,13,30,9.50
2013,12,16,13,31,9.60
2013,12,16,13,32,9.60
2013,12,16,13,33,9.60
2013,12,16,13,34,9.60
2013,12,16,13,35,9.60
2013,12,16,13,36,9.70
2013,12,16,13,37,9.70
2013,12,16,13,38,9.70
2013,12,16,13,39,9.70
2013,12,16,13,40,9.80
2013,12,16,13,41,9.80
2013,12,16,13,42,9.80
2013,12,16,13,43,9.80
2013,12,16,13,44,9.90
2013,12,16,13,45,9.90
2013,12,16,13,46,9.90
2013,12,16,13,47,9.90
2013,12,16,13,48,9.90
2013,12,16,13,49,9.90
2013,12,16,13,50,10.00
2013,12,16,13,51,10.00
2013,12,16,13,52,10.10
2013,12,16,13,53,10.10
2013,12,16,13,54,10.10
2013,12,16,13,55,10.10
2013,12,16,13,56,10.00
2013,12,16,13,57,9.90
2013,12,16,13,58,9.90
2013,12,16,13,59,9.90
2013,12,16,14,00,9.90
2013,12,16,14,01,9.90
2013,12,16,14,02,9.80
2013,12,16,14,03,9.80
2013,12,16,14,04,9.70
2013,12,16,14,05,9.70
2013,12,16,14,06,9.60
2013,12,16,14,07,9.60
2013,12,16,14,08,9.60
2013,12,16,14,09,9.60
2013,12,16,14,10,9.60
2013,12,16,14,11,9.50
2013,12,16,14,12,9.50
2013,12,16,14,13,9.50
2013,12,16,14,14,9.40
2013,12,16,14,15,9.40
2013,12,16,14,16,9.40
2013,12,16,14,17,9.40
2013,12,16,14,18,9.40
2013,12,16,14,19,9.40
2013,12,16,14,20,9.40
2013,12,16,14,21,9.40
2013,12,16,14,22,9.40
2013,12,16,14,23,9.40
2013,12,16,14,24,9.40
2013,12,16,14,25,9.50
2013,12,16,14,26,9.50
2013,12,16,14,27,9.40
2013,12,16,14,28,9.40
2013,12,16,14,29,9.30
2013,12,16,14,30,9.30
2013,12,16,14,31,9.30
2013,12,16,14,32,9.20
2013,12,16,14,33,9.10
2013,12,16,14,34,9.10
2013,12,16,14,35,9.10
2013,12,16,14,36,9.00
2013,12,16,14,37,9.00
2013,12,16,14,38,8.90
2013,12,16,14,39,8.90
2013,12,16,14,40,8.90
2013,12,16,14,41,8.90
2013,12,16,14,42,8.80
2013,12,16,14,43,8.80
2013,12,16,14,44,8.80
2013,12,16,14,45,8.80
2013,12,16,14,46,8.80
2013,12,16,14,47,8.80
2013,12,16,14,48,8.70
2013,12,16,14,49,8.70
2013,12,16,14,50,8.70
2013,12,16,14,51,8.70
2013,12,16,14,52,8.60
2013,12,16,14,53,8.60
2013,12,16,14,54,8.60
2013,12,16,14,55,8.60
2013,12,16,14,56,8.60
2013,12,16,14,57,8.50
2013,12,16,14,58,8.50
2013,12,16,14,59,8.50
2013,12,16,15,00,8.40
2013,12,16,15,01,8.40
2013,12,16,15,02,8.40
2013,12,16,15,03,8.40
2013,12,16,15,04,8.40
2013,12,16,15,05,8.40
2013,12,16,15,06,8.30
2013,12,16,15,07,8.30
2013,12,16,15,08,8.30
2013,12,16,15,09,8.30
2013,12,16,15,10,8.30
2013,12,16,15,11,8.30
2013,12,16,15,12,8.30
2013,12,16,15,13,8.20
2013,12,16,15,14,8.20
2013,12,16,15,15,8.20
2013,12,16,15,16,8.20
2013,12,16,15,17,8.20
2013,12,16,15,18,8.20
2013,12,16,15,19,8.10
2013,12,16,15,20,8.10
2013,12,16,15,21,8.10
2013,12,16,15,22,8.10
2013,12,16,15,23,8.10
2013,12,16,15,24,8.10
2013,12,16,15,25,8.00
2013,12,16,15,26,8.00
2013,12,16,15,27,8.00
2013,12,16,15,28,7.90
2013,12,16,15,29,7.90
2013,12,16,15,30,7.90
2013,12,16,15,31,7.90
2013,12,16,15,32,7.90
2013,12,16,15,33,7.80
2013,12,16,15,34,7.80
2013,12,16,15,35,7.80
2013,12,16,15,36,7.80
2013,12,16,15,37,7.80
2013,12,16,15,38,7.70
2013,12,16,15,39,7.70
2013,12,16,15,40,7.70
2013,12,16,15,41,7.70
2013,12,16,15,42,7.60
2013,12,16,15,43,7.60
2013,12,16,15,44,7.60
2013,12,16,15,45,7.60
2013,12,16,15,46,7.50
2013,12,16,15,47,7.50
2013,12,16,15,48,7.50
2013,12,16,15,49,7.40
2013,12,16,15,50,7.40
2013,12,16,15,51,7.40
2013,12,16,15,52,7.30
2013,12,16,15,53,7.30
2013,12,16,15,54,7.30
2013,12,16,15,55,7.30
2013,12,16,15,56,7.30
2013,12,16,15,57,7.20
2013,12,16,15,58,7.20
2013,12,16,15,59,7.20
2013,12,16,16,00,7.20
2013,12,16,16,01,7.20
2013,12,16,16,02,7.10
2013,12,16,16,03,7.10
2013,12,16,16,04,7.10
2013,12,16,16,05,7.10
2013,12,16,16,06,7.00
2013,12,16,16,07,7.00
2013,12,16,16,08,7.00
2013,12,16,16,09,6.90
2013,12,16,16,10,6.90
2013,12,16,16,11,6.90
2013,12,16,16,12,6.90
2013,12,16,16,13,6.80
2013,12,16,16,14,6.80
2013,12,16,16,15,6.80
2013,12,16,16,16,6.80
2013,12,16,16,17,6.70
2013,12,16,16,18,6.70
2013,12,16,16,19,6.70
2013,12,16,16,20,6.70
2013,12,16,16,21,6.70
2013,12,16,16,22,6.60
2013,12,16,16,23,6.60
2013,12,16,16,24,6.60
2013,12,16,16,25,6.60
2013,12,16,16,26,6.50
2013,12,16,16,27,6.50
2013,12,16,16,28,6.50
2013,12,16,16,29,6.40
2013,12,16,16,30,6.40
2013,12,16,16,31,6.40
2013,12,16,16,32,6.30
2013,12,16,16,33,6.30
2013,12,16,16,34,6.30
2013,12,16,16,35,6.30
2013,12,16,16,36,6.30
2013,12,16,16,37,6.20
2013,12,16,16,38,6.20
2013,12,16,16,39,6.20
2013,12,16,16,40,6.20
2013,12,16,16,41,6.20
2013,12,16,16,42,6.20
2013,12,16,16,43,6.10
2013,12,16,16,44,6.10
2013,12,16,16,45,6.10
2013,12,16,16,46,6.10
2013,12,16,16,47,6.00
2013,12,16,16,48,6.00
2013,12,16,16,49,6.00
2013,12,16,16,50,6.00
2013,12,16,16,51,5.90
2013,12,16,16,52,5.90
2013,12,16,16,53,5.90
2013,12,16,16,54,5.90
2013,12,16,16,55,5.80
2013,12,16,16,56,5.80
2013,12,16,16,57,5.80
2013,12,16,16,58,5.80
2013,12,16,16,59,5.80
2013,12,16,17,00,5.80
2013,12,16,17,01,5.80
2013,12,16,17,02,5.80
2013,12,16,17,03,5.80
2013,12,16,17,04,5.70
2013,12,16,17,05,5.70
2013,12,16,17,06,5.70
2013,12,16,17,07,5.70
2013,12,16,17,08,5.70
2013,12,16,17,09,5.70
2013,12,16,17,10,5.70
2013,12,16,17,11,5.70
2013,12,16,17,12,5.70
2013,12,16,17,13,5.70
2013,12,16,17,14,5.70
2013,12,16,17,15,5.80
2013,12,16,17,16,5.80
2013,12,16,17,17,5.80
2013,12,16,17,18,5.80
2013,12,16,17,19,5.80
2013,12,16,17,20,5.80
2013,12,16,17,21,5.80
2013,12,16,17,22,5.80
2013,12,16,17,23,5.90
2013,12,16,17,24,5.90
2013,12,16,17,25,5.90
2013,12,16,17,26,5.80
2013,12,16,17,27,5.80
2013,12,16,17,28,5.80
2013,12,16,17,29,5.80
2013,12,16,17,30,5.80
2013,12,16,17,31,5.80
2013,12,16,17,32,5.80
2013,12,16,17,33,5.70
2013,12,16,17,34,5.70
2013,12,16,17,35,5.70
2013,12,16,17,36,5.70
2013,12,16,17,37,5.60
2013,12,16,17,38,5.60
2013,12,16,17,39,5.60
2013,12,16,17,40,5.60
2013,12,16,17,41,5.60
2013,12,16,17,42,5.60
2013,12,16,17,43,5.60
2013,12,16,17,44,5.60
2013,12,16,17,45,5.60
2013,12,16,17,46,5.60
2013,12,16,17,47,5.60
2013,12,16,17,48,5.60
2013,12,16,17,49,5.60
2013,12,16,17,50,5.60
2013,12,16,17,51,5.60
2013,12,16,17,52,5.60
2013,12,16,17,53,5.60
2013,12,16,17,54,5.60
2013,12,16,17,55,5.70
2013,12,16,17,56,5.70
2013,12,16,17,57,5.70
2013,12,16,17,58,5.70
2013,12,16,17,59,5.80
2013,12,16,18,00,5.80
2013,12,16,18,01,5.80
2013,12,16,18,02,5.80
2013,12,16,18,03,5.70
2013,12,16,18,04,5.70
2013,12,16,18,05,5.70
2013,12,16,18,06,5.70